STARLINK-31040 (58722 NORAD) Tracking and Keplerian Element Data

This shows tracking and keplerian element data for the satellite.

Feedback or suggestion? Click here.




ElementValue
Catalog58722
NameSTARLINK-31040
Epoch Orbit277
Epoch Day13.25002315
Epoch Year2024
RAAN198.7688
Inclination53.1611
Eccentricity0.0001064
Argument of Perigee99.4882
Mean Anonmoly144.522
Mean Motion15.51428287
Decay Rate-0.01745059
L11 58722U 24002T 24013.25002315 -.01745059 00000+0 -32662-1 0 9992
L22 58722 53.1611 198.7688 0001064 99.4882 144.5220 15.51428287 2778



Live tracking and technical data element details for STARLINK-31040 (NORAD 58722). STARLINK-31040 can be tracked NOW for your location showing map with azimuth and elevation plus other details from your city location.







IsCatalogInMostPopularTable: catalog: 58722, numindb: 23
Update: records affected: 1



GetName: 58722 STARLINK-31040

Hit Count: updated at: Wed, 17 Apr 2024 03:38:05 GMT